Tracking 18852 objects as of 24-Nov-2017
HD Live streaming from Space Station
objects crossing your sky now

SL-8 R/B

Track SL-8 R/B now!
10-day predictions
SL-8 R/B is classified as:


NORAD ID: 21876
Int'l Code: 1992-008B
Perigee: 961.9 km
Apogee: 1,011.4 km
Inclination: 82.9 °
Period: 104.7 minutes
Semi major axis: 7357 km
RCS: 7.548 m2 (large)
Launch date: February 17, 1992
Source: Commonwealth of Independent States (former USSR) (CIS)
Launch site: PLESETSK MISSILE AND SPACE COMPLEX (PKMTR)

Note: This is a ROCKET BODY
aabbcc
Your satellite tracking list
Your tracking list is empty




NASA's NSSDC Master Catalog

Two Line Element Set (TLE):
1 21876U 92008B   17328.20923149 +.00000079 +00000-0 +66001-4 0  9997
2 21876 082.9267 358.2806 0033635 308.9867 117.6085 13.75612152293154
Source of the keplerian elements: AFSPC